Location: Unspecified
(35.7250°N, 0.0000°E)
Time: 04:56:40
(UTC+00:00)

Vanguard 2 - Pass Details

Date: 22 June 2019
Orbit: 553 x 2938 km, 32.9° (Epoch: 22 July)

Event Time Altitude Azimuth Distance (km) Brightness Sun altitude
Rises 12:05:28 0° 276° (W) 4,057 11.2 77.7°
Reaches altitude 10° 12:07:50 10° 273° (W) 3,342 11.0 77.6°
Maximum altitude 12:16:30 60° 196° (SSW) 2,061 11.6 77.3°
Drops below altitude 10° 12:30:45 10° 121° (ESE) 5,287 11.9 76.2°
Sets 12:35:33 0° 118° (ESE) 6,534 12.3 75.7°
